AXM103 WMKK-ZPPP

Flight info

Callsign AXM103
Flight time 3h 25m
Altitude 38000
Route ATIMU1D ATIMU Y506 TEPUS A457 VPG/N0451F370 A457 HTY/N0451F380 A464 BKK/N0449F390 B346 LPB B218 SAGAG/K0828S1160 A581 BIDRU/K0819S1190 A581 ELASU ELA4J
Aircraft A20N/M-SDE2E3FGHIRWXY/LB1

Departure

Time 2026-05-08 09:27
Airport Kuala Lumpur International Airport (WMKK)

Arrival

Time 2026-05-08 12:52
Airport Kunming Changshui International Airport (ZPPP)
Time Latitude Longitude Altitude Speed Heading
2026-05-08 09:13 2.73856 101.68607 42 ft 0 kts 146°
2026-05-08 09:16 2.73866 101.68600 40 ft 3 kts 157°
2026-05-08 09:16 2.73885 101.68595 38 ft 3 kts 187°
2026-05-08 09:16 2.73904 101.68601 37 ft 3 kts 214°
2026-05-08 09:16 2.73918 101.68613 41 ft 2 kts 233°
2026-05-08 09:17 2.73921 101.68617 39 ft 0 kts 236°
2026-05-08 09:22 2.73901 101.68561 42 ft 7 kts 269°
2026-05-08 09:23 2.73891 101.68505 42 ft 10 kts 245°
2026-05-08 09:23 2.73850 101.68441 41 ft 12 kts 236°
2026-05-08 09:23 2.73798 101.68363 41 ft 15 kts 236°
2026-05-08 09:23 2.73736 101.68271 41 ft 17 kts 236°
2026-05-08 09:24 2.73688 101.68200 40 ft 13 kts 239°
2026-05-08 09:24 2.73729 101.68147 39 ft 11 kts 329°
2026-05-08 09:24 2.73799 101.68101 39 ft 13 kts 326°
2026-05-08 09:24 2.73882 101.68045 39 ft 15 kts 326°
2026-05-08 09:25 2.73951 101.67971 39 ft 15 kts 276°
2026-05-08 09:25 2.73915 101.67910 38 ft 10 kts 239°
2026-05-08 09:25 2.73883 101.67859 38 ft 9 kts 237°
2026-05-08 09:25 2.73838 101.67799 37 ft 12 kts 219°
2026-05-08 09:26 2.73750 101.67796 35 ft 14 kts 155°
2026-05-08 09:26 2.73650 101.67861 35 ft 26 kts 145°
2026-05-08 09:26 2.73339 101.68072 35 ft 83 kts 146°
2026-05-08 09:26 2.72716 101.68494 39 ft 131 kts 146°
2026-05-08 09:27 2.71859 101.69070 39 ft 166 kts 146°
2026-05-08 09:27 2.70915 101.69700 587 ft 152 kts 143°
2026-05-08 09:27 2.69995 101.70316 848 ft 167 kts 146°
2026-05-08 09:27 2.69000 101.70958 1258 ft 170 kts 148°
2026-05-08 09:28 2.67917 101.71356 1793 ft 169 kts 173°
2026-05-08 09:28 2.66689 101.71305 2161 ft 185 kts 191°
2026-05-08 09:28 2.65448 101.70796 2575 ft 204 kts 214°
2026-05-08 09:28 2.64359 101.69783 2983 ft 225 kts 227°
2026-05-08 09:29 2.63328 101.68598 3765 ft 226 kts 227°
2026-05-08 09:29 2.62304 101.67399 4567 ft 227 kts 234°
2026-05-08 09:29 2.61712 101.65956 5280 ft 232 kts 262°
2026-05-08 09:29 2.61871 101.64355 6031 ft 235 kts 289°
2026-05-08 09:30 2.62571 101.62871 6728 ft 236 kts 306°
2026-05-08 09:30 2.63855 101.61842 7292 ft 244 kts 342°
2026-05-08 09:30 2.65531 101.61745 7886 ft 246 kts 17°
2026-05-08 09:30 2.67078 101.62443 8555 ft 246 kts 35°
2026-05-08 09:31 2.68430 101.63586 8887 ft 264 kts 50°
2026-05-08 09:31 2.69375 101.65229 9118 ft 284 kts 75°
2026-05-08 09:31 2.69570 101.67218 9693 ft 291 kts 90°
2026-05-08 09:31 2.69517 101.69254 10366 ft 297 kts 92°
2026-05-08 09:32 2.69414 101.71388 10596 ft 319 kts 93°
2026-05-08 09:32 2.69298 101.73671 10816 ft 338 kts 93°
2026-05-08 09:32 2.69186 101.76053 11367 ft 345 kts 92°
2026-05-08 09:32 2.69080 101.78461 12060 ft 348 kts 92°
2026-05-08 09:33 2.68979 101.80889 12724 ft 351 kts 92°
2026-05-08 09:33 2.68881 101.83306 13375 ft 354 kts 92°
2026-05-08 09:33 2.68782 101.85780 13993 ft 357 kts 92°
2026-05-08 09:33 2.68682 101.88274 14584 ft 360 kts 92°
2026-05-08 09:34 2.68581 101.90789 15168 ft 363 kts 92°
2026-05-08 09:34 2.68479 101.93323 15741 ft 366 kts 92°
2026-05-08 09:34 2.68376 101.95876 16299 ft 369 kts 92°
2026-05-08 09:34 2.68272 101.98448 16852 ft 372 kts 92°
2026-05-08 09:35 2.68168 102.01039 17392 ft 375 kts 92°
2026-05-08 09:35 2.68271 102.03649 17906 ft 378 kts 79°
2026-05-08 09:35 2.69133 102.06135 18374 ft 381 kts 62°
2026-05-08 09:35 2.70713 102.08266 18812 ft 385 kts 45°
2026-05-08 09:36 2.72880 102.09860 19255 ft 390 kts 28°
2026-05-08 09:36 2.75458 102.10774 19686 ft 396 kts 12°
2026-05-08 09:36 2.78224 102.10920 20115 ft 402 kts 356°
2026-05-08 09:36 2.80965 102.10284 20536 ft 409 kts 340°
2026-05-08 09:37 2.83457 102.08916 20958 ft 415 kts 324°
2026-05-08 09:37 2.85616 102.06985 21369 ft 419 kts 317°
2026-05-08 09:37 2.87563 102.04790 21772 ft 423 kts 308°
2026-05-08 09:37 2.89333 102.02424 22187 ft 426 kts 308°
2026-05-08 09:38 2.91109 102.00036 22600 ft 429 kts 308°
2026-05-08 09:38 2.92897 101.97631 23022 ft 432 kts 308°
2026-05-08 09:38 2.94673 101.95247 23409 ft 435 kts 308°
2026-05-08 09:38 2.96489 101.92813 23736 ft 438 kts 308°
2026-05-08 09:39 2.98315 101.90368 24090 ft 439 kts 308°
2026-05-08 09:39 3.00147 101.87916 24421 ft 441 kts 308°
2026-05-08 09:39 3.01992 101.85446 24749 ft 444 kts 308°
2026-05-08 09:39 3.03843 101.82969 25078 ft 446 kts 308°
2026-05-08 09:40 3.05704 101.80477 25401 ft 448 kts 308°
2026-05-08 09:40 3.07576 101.77972 25699 ft 450 kts 308°
2026-05-08 09:40 3.09455 101.75455 26013 ft 452 kts 308°
2026-05-08 09:40 3.11344 101.72927 26308 ft 454 kts 308°
2026-05-08 09:41 3.13238 101.70391 26608 ft 456 kts 308°
2026-05-08 09:41 3.15144 101.67839 26890 ft 458 kts 308°
2026-05-08 09:41 3.17057 101.65277 27158 ft 460 kts 308°
2026-05-08 09:41 3.18975 101.62709 27434 ft 462 kts 308°
2026-05-08 09:42 3.20901 101.60131 27701 ft 464 kts 308°
2026-05-08 09:42 3.22838 101.57536 27969 ft 466 kts 308°
2026-05-08 09:42 3.24758 101.54964 28226 ft 468 kts 308°
2026-05-08 09:42 3.26706 101.52355 28484 ft 469 kts 308°
2026-05-08 09:43 3.28664 101.49732 28727 ft 471 kts 308°
2026-05-08 09:43 3.30632 101.47095 28972 ft 473 kts 308°
2026-05-08 09:43 3.32606 101.44451 29213 ft 475 kts 308°
2026-05-08 09:43 3.34583 101.41801 29445 ft 476 kts 308°
2026-05-08 09:44 3.36568 101.39142 29675 ft 478 kts 308°
2026-05-08 09:44 3.38568 101.36461 29901 ft 480 kts 308°
2026-05-08 09:44 3.40569 101.33779 30108 ft 482 kts 308°
2026-05-08 09:44 3.42578 101.31087 30313 ft 483 kts 308°
2026-05-08 09:45 3.44589 101.28390 30522 ft 484 kts 308°
2026-05-08 09:45 3.46606 101.25686 30737 ft 486 kts 308°
2026-05-08 09:45 3.47261 101.24809 30799 ft 486 kts 308°
2026-05-08 09:46 3.48433 101.23237 30936 ft 487 kts 308°
2026-05-08 09:46 3.50458 101.20523 31209 ft 486 kts 308°
2026-05-08 09:46 3.52503 101.17779 31508 ft 485 kts 308°
2026-05-08 09:46 3.54492 101.15112 31792 ft 484 kts 308°
2026-05-08 09:47 3.56504 101.12413 32080 ft 483 kts 308°
2026-05-08 09:47 3.58512 101.09720 32352 ft 482 kts 308°
2026-05-08 09:47 3.60515 101.07033 32630 ft 481 kts 308°
2026-05-08 09:47 3.62518 101.04345 32885 ft 481 kts 308°
2026-05-08 09:48 3.64537 101.01682 33150 ft 479 kts 312°
2026-05-08 09:48 3.66850 100.99293 33374 ft 476 kts 321°
2026-05-08 09:48 3.69483 100.97321 33604 ft 472 kts 330°
2026-05-08 09:48 3.72370 100.95789 33831 ft 469 kts 338°
2026-05-08 09:49 3.75355 100.94477 34029 ft 468 kts 338°
2026-05-08 09:49 3.78330 100.93157 34206 ft 468 kts 338°
2026-05-08 09:49 3.81302 100.91834 34392 ft 467 kts 338°
2026-05-08 09:49 3.84270 100.90511 34568 ft 467 kts 338°
2026-05-08 09:50 3.87233 100.89191 34742 ft 466 kts 338°
2026-05-08 09:50 3.90196 100.87872 34898 ft 466 kts 338°
2026-05-08 09:50 3.93159 100.86552 35061 ft 466 kts 338°
2026-05-08 09:50 3.96120 100.85234 35233 ft 465 kts 338°
2026-05-08 09:51 3.99080 100.83916 35390 ft 465 kts 338°
2026-05-08 09:51 4.02037 100.82600 35555 ft 465 kts 338°
2026-05-08 09:51 4.04997 100.81282 35722 ft 465 kts 338°
2026-05-08 09:52 4.10902 100.78651 35804 ft 464 kts 338°
2026-05-08 09:52 4.16793 100.76027 35800 ft 463 kts 338°
2026-05-08 09:53 4.22647 100.73407 35800 ft 464 kts 338°
2026-05-08 09:53 4.28537 100.70761 35799 ft 464 kts 338°
2026-05-08 09:54 4.34434 100.68113 35804 ft 464 kts 338°
2026-05-08 09:54 4.39368 100.65898 35803 ft 464 kts 338°
2026-05-08 09:55 4.46219 100.62823 35803 ft 464 kts 338°
2026-05-08 09:55 4.51120 100.60622 35802 ft 464 kts 338°
2026-05-08 09:56 4.57013 100.57975 35793 ft 464 kts 338°
2026-05-08 09:56 4.62913 100.55326 35797 ft 464 kts 338°
2026-05-08 09:57 4.71767 100.51348 35800 ft 464 kts 338°
2026-05-08 09:57 4.77659 100.48700 35806 ft 464 kts 338°
2026-05-08 09:58 4.83558 100.46049 35799 ft 464 kts 338°
2026-05-08 09:58 4.89459 100.43396 35787 ft 464 kts 338°
2026-05-08 09:59 4.95304 100.40768 35780 ft 464 kts 338°
2026-05-08 09:59 5.01235 100.38101 35783 ft 464 kts 338°
2026-05-08 10:00 5.07096 100.35465 35773 ft 464 kts 338°
2026-05-08 10:00 5.12989 100.32813 35765 ft 464 kts 337°
2026-05-08 10:01 5.18888 100.30159 35750 ft 464 kts 337°
2026-05-08 10:01 5.24845 100.27674 35745 ft 462 kts 346°
2026-05-08 10:02 5.31166 100.26771 35742 ft 458 kts
2026-05-08 10:02 5.37473 100.27514 35740 ft 457 kts 10°
2026-05-08 10:03 5.43756 100.28457 35748 ft 457 kts 10°
2026-05-08 10:03 5.50054 100.29399 35749 ft 457 kts 10°
2026-05-08 10:04 5.56349 100.30343 35756 ft 457 kts 10°
2026-05-08 10:04 5.62645 100.31289 35763 ft 458 kts
2026-05-08 10:05 5.68949 100.32236 35776 ft 458 kts
2026-05-08 10:05 5.75251 100.33184 35790 ft 458 kts
2026-05-08 10:06 5.81513 100.34125 35805 ft 458 kts
2026-05-08 10:06 5.87816 100.35073 35799 ft 458 kts
2026-05-08 10:07 5.94116 100.36020 35789 ft 458 kts
2026-05-08 10:07 6.00420 100.36969 35772 ft 458 kts
2026-05-08 10:08 6.06718 100.37917 35760 ft 457 kts
2026-05-08 10:08 6.13017 100.38865 35750 ft 457 kts
2026-05-08 10:09 6.19326 100.39684 35762 ft 459 kts
2026-05-08 10:09 6.22523 100.39756 35927 ft 459 kts
2026-05-08 10:09 6.25714 100.39790 36134 ft 458 kts
2026-05-08 10:10 6.28898 100.39835 36322 ft 457 kts
2026-05-08 10:10 6.32078 100.39882 36530 ft 457 kts
2026-05-08 10:10 6.35254 100.39928 36725 ft 456 kts
2026-05-08 10:10 6.38429 100.39973 36920 ft 455 kts
2026-05-08 10:11 6.41594 100.40017 37108 ft 455 kts
2026-05-08 10:11 6.44764 100.40061 37297 ft 454 kts
2026-05-08 10:11 6.47921 100.40104 37469 ft 454 kts
2026-05-08 10:11 6.51074 100.40148 37643 ft 453 kts
2026-05-08 10:12 6.54223 100.40190 37782 ft 453 kts
2026-05-08 10:12 6.57334 100.40144 37798 ft 453 kts 359°
2026-05-08 10:12 6.63626 100.39873 37791 ft 452 kts 359°
2026-05-08 10:13 6.69916 100.39618 37786 ft 452 kts 359°
2026-05-08 10:13 6.76205 100.39394 37783 ft 453 kts 359°
2026-05-08 10:14 6.82504 100.39176 37778 ft 453 kts 359°
2026-05-08 10:14 6.88800 100.38957 37772 ft 453 kts 359°
2026-05-08 10:15 6.95096 100.38859 37771 ft 452 kts
2026-05-08 10:15 7.01343 100.39150 37768 ft 452 kts
2026-05-08 10:16 7.07629 100.39425 37776 ft 452 kts
2026-05-08 10:16 7.13908 100.39701 37780 ft 452 kts
2026-05-08 10:17 7.20205 100.39979 37786 ft 452 kts
2026-05-08 10:17 7.26496 100.40257 37797 ft 453 kts
2026-05-08 10:18 7.32796 100.40535 37804 ft 453 kts
2026-05-08 10:18 7.39086 100.40813 37805 ft 453 kts
2026-05-08 10:19 7.45385 100.41092 37810 ft 453 kts
2026-05-08 10:20 7.54847 100.41510 37817 ft 453 kts
2026-05-08 10:20 7.61147 100.41789 37823 ft 453 kts
2026-05-08 10:21 7.67455 100.42069 37825 ft 453 kts
2026-05-08 10:21 7.73745 100.42348 37819 ft 451 kts
2026-05-08 10:22 7.79989 100.42625 37822 ft 452 kts
2026-05-08 10:22 7.86267 100.42903 37824 ft 451 kts
2026-05-08 10:23 7.92544 100.43182 37826 ft 451 kts
2026-05-08 10:23 7.98827 100.43461 37826 ft 452 kts
2026-05-08 10:24 8.05106 100.43739 37825 ft 452 kts
2026-05-08 10:24 8.11392 100.43997 37821 ft 452 kts
2026-05-08 10:25 8.17684 100.44195 37824 ft 452 kts
2026-05-08 10:25 8.23980 100.44398 37825 ft 453 kts
2026-05-08 10:26 8.30273 100.44607 37827 ft 453 kts
2026-05-08 10:26 8.36580 100.44818 37833 ft 453 kts
2026-05-08 10:27 8.42889 100.45029 37831 ft 453 kts
2026-05-08 10:27 8.49184 100.45240 37833 ft 453 kts
2026-05-08 10:28 8.55478 100.45451 37823 ft 451 kts
2026-05-08 10:28 8.61707 100.45659 37823 ft 451 kts
2026-05-08 10:29 8.67982 100.45870 37827 ft 451 kts
2026-05-08 10:29 8.74256 100.46080 37829 ft 451 kts
2026-05-08 10:30 8.80529 100.46291 37829 ft 451 kts
2026-05-08 10:30 8.86808 100.46502 37837 ft 452 kts
2026-05-08 10:31 8.93094 100.46714 37836 ft 452 kts
2026-05-08 10:31 8.99387 100.46927 37845 ft 452 kts
2026-05-08 10:32 9.05679 100.47140 37846 ft 452 kts
2026-05-08 10:32 9.11970 100.47353 37849 ft 453 kts
2026-05-08 10:33 9.18266 100.47568 37849 ft 453 kts
2026-05-08 10:33 9.24532 100.47781 37845 ft 453 kts
2026-05-08 10:34 9.30838 100.47996 37843 ft 453 kts
2026-05-08 10:34 9.37144 100.48211 37845 ft 454 kts
2026-05-08 10:35 9.43454 100.48426 37843 ft 454 kts
2026-05-08 10:35 9.49764 100.48641 37843 ft 454 kts
2026-05-08 10:36 9.56087 100.48857 37844 ft 454 kts
2026-05-08 10:36 9.62416 100.49073 37847 ft 455 kts
2026-05-08 10:37 9.68739 100.49289 37848 ft 455 kts
2026-05-08 10:37 9.75059 100.49523 37846 ft 454 kts
2026-05-08 10:38 9.81360 100.49788 37845 ft 453 kts
2026-05-08 10:38 9.87630 100.50047 37845 ft 453 kts
2026-05-08 10:39 9.93924 100.50304 37847 ft 453 kts
2026-05-08 10:39 10.00226 100.50562 37845 ft 453 kts
2026-05-08 10:40 10.06523 100.50819 37845 ft 453 kts
2026-05-08 10:40 10.12817 100.51076 37842 ft 452 kts
2026-05-08 10:41 10.18045 100.51290 37840 ft 452 kts
2026-05-08 10:41 10.24338 100.51547 37841 ft 452 kts
2026-05-08 10:42 10.30628 100.51804 37838 ft 452 kts
2026-05-08 10:42 10.36919 100.52062 37837 ft 453 kts
2026-05-08 10:43 10.43213 100.52322 37836 ft 453 kts
2026-05-08 10:43 10.49509 100.52582 37840 ft 453 kts
2026-05-08 10:44 10.55808 100.52842 37840 ft 453 kts
2026-05-08 10:44 10.62109 100.53102 37843 ft 453 kts
2026-05-08 10:45 10.68419 100.53362 37847 ft 454 kts
2026-05-08 10:45 10.74725 100.53623 37845 ft 453 kts
2026-05-08 10:46 10.81031 100.53883 37846 ft 453 kts
2026-05-08 10:46 10.87334 100.54144 37847 ft 454 kts
2026-05-08 10:47 10.93634 100.54404 37844 ft 453 kts
2026-05-08 10:47 10.99939 100.54665 37843 ft 454 kts
2026-05-08 10:48 11.06253 100.54897 37837 ft 453 kts
2026-05-08 10:48 11.12517 100.55108 37822 ft 453 kts
2026-05-08 10:49 11.18820 100.55323 37827 ft 453 kts
2026-05-08 10:49 11.25124 100.55545 37828 ft 453 kts
2026-05-08 10:50 11.31432 100.55766 37832 ft 453 kts
2026-05-08 10:50 11.37719 100.55986 37833 ft 454 kts
2026-05-08 10:51 11.44030 100.56206 37841 ft 454 kts
2026-05-08 10:51 11.50350 100.56428 37844 ft 454 kts
2026-05-08 10:52 11.56674 100.56649 37847 ft 455 kts
2026-05-08 10:52 11.62994 100.56870 37849 ft 455 kts
2026-05-08 10:53 11.69327 100.57092 37852 ft 455 kts
2026-05-08 10:53 11.75654 100.57314 37856 ft 455 kts
2026-05-08 10:54 11.81623 100.57523 37855 ft 455 kts
2026-05-08 10:54 11.87944 100.57745 37847 ft 453 kts
2026-05-08 10:55 11.94240 100.57966 37843 ft 453 kts
2026-05-08 10:55 12.00540 100.58187 37842 ft 453 kts
2026-05-08 10:56 12.06808 100.58229 37838 ft 453 kts
2026-05-08 10:56 12.13109 100.58188 37839 ft 453 kts
2026-05-08 10:57 12.19412 100.58175 37843 ft 452 kts
2026-05-08 10:57 12.28859 100.58174 37843 ft 452 kts
2026-05-08 10:58 12.35157 100.58175 37840 ft 452 kts
2026-05-08 10:58 12.41444 100.58175 37839 ft 452 kts
2026-05-08 10:59 12.47730 100.58175 37841 ft 452 kts
2026-05-08 10:59 12.54015 100.58175 37833 ft 451 kts
2026-05-08 11:00 12.60302 100.58175 37831 ft 451 kts
2026-05-08 11:00 12.66541 100.58175 37836 ft 451 kts
2026-05-08 11:01 12.72817 100.58175 37835 ft 450 kts
2026-05-08 11:01 12.79077 100.58174 37831 ft 450 kts
2026-05-08 11:02 12.88433 100.58174 37827 ft 447 kts
2026-05-08 11:03 12.94663 100.58174 37822 ft 447 kts
2026-05-08 11:03 13.00868 100.58173 37825 ft 446 kts
2026-05-08 11:04 13.07076 100.58173 37822 ft 445 kts
2026-05-08 11:04 13.13263 100.58173 37821 ft 444 kts
2026-05-08 11:05 13.19442 100.58173 37811 ft 444 kts
2026-05-08 11:05 13.25616 100.58173 37801 ft 443 kts
2026-05-08 11:06 13.30589 100.58173 37797 ft 443 kts
2026-05-08 11:06 13.36764 100.58180 37792 ft 443 kts
2026-05-08 11:07 13.42921 100.58346 37823 ft 448 kts
2026-05-08 11:07 13.48147 100.58509 37831 ft 448 kts
2026-05-08 11:08 13.50461 100.58576 37832 ft 448 kts
2026-05-08 11:08 13.56023 100.58728 37844 ft 449 kts
2026-05-08 11:09 13.62266 100.58895 37844 ft 449 kts
2026-05-08 11:09 13.68522 100.59061 37849 ft 450 kts
2026-05-08 11:10 13.74793 100.59228 37846 ft 451 kts
2026-05-08 11:10 13.81064 100.59396 37856 ft 451 kts
2026-05-08 11:11 13.87348 100.59564 37861 ft 452 kts
2026-05-08 11:11 13.93637 100.59793 37867 ft 452 kts
2026-05-08 11:12 13.99788 100.60141 37861 ft 452 kts
2026-05-08 11:12 14.06043 100.60482 37855 ft 453 kts
2026-05-08 11:13 14.12343 100.60813 37853 ft 453 kts
2026-05-08 11:13 14.18648 100.61140 37850 ft 453 kts
2026-05-08 11:14 14.24951 100.61467 37838 ft 454 kts
2026-05-08 11:14 14.31244 100.61795 37827 ft 452 kts
2026-05-08 11:15 14.37534 100.62122 37829 ft 453 kts
2026-05-08 11:15 14.43824 100.62450 37822 ft 452 kts
2026-05-08 11:16 14.50115 100.62778 37823 ft 452 kts
2026-05-08 11:16 14.56407 100.63106 37836 ft 452 kts
2026-05-08 11:17 14.62692 100.63433 37826 ft 452 kts
2026-05-08 11:17 14.68937 100.63760 37830 ft 452 kts
2026-05-08 11:18 14.75261 100.64090 37832 ft 452 kts
2026-05-08 11:18 14.81516 100.64417 37833 ft 453 kts
2026-05-08 11:19 14.87823 100.64747 37828 ft 453 kts
2026-05-08 11:19 14.94119 100.65076 37839 ft 454 kts
2026-05-08 11:20 15.00433 100.65407 37835 ft 454 kts
2026-05-08 11:20 15.06746 100.65737 37836 ft 454 kts
2026-05-08 11:21 15.13062 100.66068 37839 ft 454 kts
2026-05-08 11:21 15.19375 100.66400 37828 ft 454 kts
2026-05-08 11:22 15.25668 100.66907 37827 ft 454 kts
2026-05-08 11:22 15.31813 100.68413 37825 ft 454 kts 19°
2026-05-08 11:23 15.37752 100.70634 37819 ft 454 kts 20°
2026-05-08 11:23 15.43701 100.72856 37827 ft 455 kts 20°
2026-05-08 11:24 15.49617 100.75073 37827 ft 455 kts 20°
2026-05-08 11:24 15.55577 100.77311 37828 ft 456 kts 20°
2026-05-08 11:25 15.61546 100.79555 37833 ft 457 kts 20°
2026-05-08 11:25 15.67525 100.81805 37837 ft 457 kts 20°
2026-05-08 11:26 15.73517 100.84060 37843 ft 458 kts 20°
2026-05-08 11:26 15.79518 100.86320 37845 ft 459 kts 20°
2026-05-08 11:27 15.85518 100.88582 37849 ft 459 kts 20°
2026-05-08 11:27 15.91526 100.90847 37840 ft 459 kts 20°
2026-05-08 11:28 15.96503 100.92725 37839 ft 457 kts 20°
2026-05-08 11:28 16.02491 100.94985 37840 ft 458 kts 20°
2026-05-08 11:29 16.08480 100.97248 37844 ft 458 kts 20°
2026-05-08 11:29 16.14465 100.99511 37849 ft 458 kts 20°
2026-05-08 11:30 16.20453 101.01777 37847 ft 458 kts 20°
2026-05-08 11:30 16.26445 101.04045 37854 ft 459 kts 20°
2026-05-08 11:31 16.32444 101.06317 37871 ft 459 kts 20°
2026-05-08 11:31 16.38446 101.08592 37871 ft 459 kts 20°
2026-05-08 11:32 16.44433 101.10863 37866 ft 457 kts 20°
2026-05-08 11:32 16.50405 101.13129 37864 ft 457 kts 20°
2026-05-08 11:33 16.56123 101.15300 37866 ft 457 kts 20°
2026-05-08 11:33 16.62109 101.17575 37879 ft 457 kts 19°
2026-05-08 11:34 16.68090 101.19808 37877 ft 457 kts 16°
2026-05-08 11:34 16.74229 101.21635 37878 ft 458 kts 15°
2026-05-08 11:35 16.80365 101.23466 37877 ft 459 kts 15°
2026-05-08 11:35 16.86500 101.25297 37880 ft 459 kts 15°
2026-05-08 11:36 16.92652 101.27134 37890 ft 460 kts 15°
2026-05-08 11:36 16.98820 101.28976 37898 ft 461 kts 15°
2026-05-08 11:37 17.04952 101.30810 37914 ft 462 kts 15°
2026-05-08 11:37 17.11170 101.32670 37929 ft 462 kts 15°
2026-05-08 11:38 17.17310 101.34503 37922 ft 460 kts 15°
2026-05-08 11:38 17.23468 101.36335 37926 ft 460 kts 15°
2026-05-08 11:39 17.29634 101.38172 37927 ft 460 kts 15°
2026-05-08 11:39 17.35790 101.40018 37923 ft 461 kts 15°
2026-05-08 11:40 17.41955 101.41870 37917 ft 460 kts 15°
2026-05-08 11:40 17.48120 101.43722 37911 ft 460 kts 15°
2026-05-08 11:41 17.54277 101.45573 37905 ft 460 kts 15°
2026-05-08 11:41 17.60436 101.47425 37906 ft 460 kts 15°
2026-05-08 11:42 17.66594 101.49279 37901 ft 460 kts 15°
2026-05-08 11:42 17.72754 101.51134 37903 ft 460 kts 15°
2026-05-08 11:43 17.75344 101.51914 37906 ft 461 kts 15°
2026-05-08 11:43 17.81467 101.53743 37903 ft 461 kts 15°
2026-05-08 11:44 17.87648 101.55588 37893 ft 461 kts 15°
2026-05-08 11:44 17.93827 101.57435 37891 ft 462 kts 15°
2026-05-08 11:45 18.00013 101.59287 37889 ft 462 kts 15°
2026-05-08 11:45 18.06212 101.61144 37884 ft 463 kts 15°
2026-05-08 11:46 18.12414 101.63004 37876 ft 464 kts 15°
2026-05-08 11:46 18.18627 101.64868 37881 ft 465 kts 15°
2026-05-08 11:47 18.24848 101.66736 37885 ft 465 kts 14°
2026-05-08 11:47 18.31076 101.68607 37888 ft 466 kts 14°
2026-05-08 11:48 18.37292 101.70476 37872 ft 463 kts 14°
2026-05-08 11:48 18.43493 101.72343 37875 ft 464 kts 14°
2026-05-08 11:49 18.49705 101.74214 37872 ft 463 kts 14°
2026-05-08 11:49 18.55904 101.76082 37877 ft 463 kts 14°
2026-05-08 11:50 18.62068 101.77940 37879 ft 464 kts 14°
2026-05-08 11:50 18.68270 101.79813 37879 ft 463 kts 14°
2026-05-08 11:51 18.74463 101.81683 37884 ft 463 kts 14°
2026-05-08 11:51 18.80666 101.83558 37885 ft 463 kts 14°
2026-05-08 11:52 18.86871 101.85435 37891 ft 463 kts 14°
2026-05-08 11:52 18.93068 101.87312 37891 ft 463 kts 14°
2026-05-08 11:53 18.99265 101.89190 37892 ft 463 kts 14°
2026-05-08 11:53 19.05456 101.91067 37893 ft 463 kts 14°
2026-05-08 11:54 19.11649 101.92946 37888 ft 463 kts 14°
2026-05-08 11:54 19.17840 101.94826 37899 ft 463 kts 14°
2026-05-08 11:55 19.23995 101.96697 37902 ft 463 kts 14°
2026-05-08 11:55 19.30201 101.98585 37909 ft 464 kts 14°
2026-05-08 11:56 19.36398 102.00472 37901 ft 463 kts 14°
2026-05-08 11:56 19.42595 102.02360 37902 ft 463 kts 14°
2026-05-08 11:57 19.48780 102.04246 37900 ft 464 kts 14°
2026-05-08 11:57 19.54982 102.06138 37895 ft 464 kts 14°
2026-05-08 11:58 19.61188 102.08033 37896 ft 464 kts 14°
2026-05-08 11:58 19.67387 102.09928 37885 ft 463 kts 13°
2026-05-08 11:59 19.76681 102.12771 37872 ft 463 kts 14°
2026-05-08 11:59 19.82867 102.14667 37888 ft 464 kts 13°
2026-05-08 12:00 19.89174 102.16021 37885 ft 461 kts 359°
2026-05-08 12:00 19.95462 102.15235 37884 ft 453 kts 340°
2026-05-08 12:01 20.01317 102.12846 37889 ft 450 kts 335°
2026-05-08 12:01 20.07094 102.10394 37891 ft 449 kts 335°
2026-05-08 12:02 20.12894 102.07930 37891 ft 448 kts 335°
2026-05-08 12:02 20.18662 102.05474 37894 ft 446 kts 335°
2026-05-08 12:03 20.24425 102.03017 37907 ft 445 kts 335°
2026-05-08 12:03 20.30164 102.00569 37901 ft 444 kts 335°
2026-05-08 12:04 20.35907 101.98116 37916 ft 446 kts 335°
2026-05-08 12:04 20.41668 101.95655 37923 ft 446 kts 335°
2026-05-08 12:05 20.47417 101.93196 37933 ft 445 kts 335°
2026-05-08 12:05 20.53154 101.90741 37930 ft 444 kts 334°
2026-05-08 12:06 20.58899 101.88280 37926 ft 445 kts 334°
2026-05-08 12:06 20.64644 101.85817 37929 ft 445 kts 334°
2026-05-08 12:07 20.70391 101.83352 37930 ft 445 kts 334°
2026-05-08 12:07 20.76137 101.80884 37931 ft 445 kts 334°
2026-05-08 12:08 20.81849 101.78428 37935 ft 445 kts 334°
2026-05-08 12:08 20.87596 101.75957 37927 ft 444 kts 334°
2026-05-08 12:09 20.93322 101.73492 37932 ft 444 kts 334°
2026-05-08 12:09 20.99054 101.71022 37933 ft 444 kts 334°
2026-05-08 12:10 21.04793 101.68547 37934 ft 444 kts 334°
2026-05-08 12:10 21.10527 101.66073 37934 ft 444 kts 334°
2026-05-08 12:11 21.16221 101.63613 37929 ft 444 kts 334°
2026-05-08 12:11 21.21944 101.61145 37926 ft 444 kts 334°
2026-05-08 12:12 21.27686 101.58693 37928 ft 444 kts 334°
2026-05-08 12:12 21.33430 101.56240 37931 ft 445 kts 334°
2026-05-08 12:13 21.39191 101.53773 37931 ft 446 kts 334°
2026-05-08 12:13 21.44953 101.51303 37936 ft 446 kts 334°
2026-05-08 12:14 21.50717 101.48831 37937 ft 446 kts 334°
2026-05-08 12:14 21.56479 101.46357 37939 ft 446 kts 334°
2026-05-08 12:15 21.62246 101.43879 37933 ft 446 kts 334°
2026-05-08 12:15 21.68017 101.41397 37943 ft 447 kts 334°
2026-05-08 12:16 21.72815 101.39331 37940 ft 447 kts 334°
2026-05-08 12:16 21.78604 101.36838 37945 ft 447 kts 334°
2026-05-08 12:17 21.84380 101.34348 37936 ft 446 kts 334°
2026-05-08 12:17 21.90148 101.31859 37939 ft 446 kts 334°
2026-05-08 12:18 21.95918 101.29370 37939 ft 447 kts 333°
2026-05-08 12:18 22.01695 101.26884 37946 ft 447 kts 333°
2026-05-08 12:19 22.07473 101.24395 37944 ft 446 kts 333°
2026-05-08 12:19 22.13231 101.21912 37943 ft 446 kts 333°
2026-05-08 12:20 22.19013 101.19415 37948 ft 447 kts 333°
2026-05-08 12:20 22.24746 101.16937 37945 ft 447 kts 333°
2026-05-08 12:21 22.30512 101.14444 37952 ft 446 kts 333°
2026-05-08 12:21 22.36270 101.11952 37957 ft 445 kts 333°
2026-05-08 12:22 22.42024 101.09459 37956 ft 445 kts 333°
2026-05-08 12:22 22.47766 101.06969 37956 ft 444 kts 332°
2026-05-08 12:23 22.53481 101.04489 37949 ft 442 kts 332°
2026-05-08 12:23 22.59190 101.02008 37960 ft 445 kts 332°
2026-05-08 12:24 22.65012 100.99606 37958 ft 451 kts 339°
2026-05-08 12:24 22.71323 100.98877 37968 ft 467 kts 358°
2026-05-08 12:25 22.77694 101.00482 37970 ft 483 kts 19°
2026-05-08 12:25 22.83611 101.04075 37976 ft 489 kts 26°
2026-05-08 12:26 22.89477 101.07861 37980 ft 490 kts 26°
2026-05-08 12:26 22.95317 101.11628 37978 ft 488 kts 26°
2026-05-08 12:27 23.01166 101.15403 37974 ft 489 kts 26°
2026-05-08 12:27 23.07008 101.19179 37982 ft 488 kts 26°
2026-05-08 12:28 23.12826 101.22942 37991 ft 489 kts 26°
2026-05-08 12:28 23.18682 101.26733 37990 ft 490 kts 26°
2026-05-08 12:29 23.24295 101.30369 38021 ft 493 kts 26°
2026-05-08 12:29 23.30161 101.34177 38002 ft 490 kts 26°
2026-05-08 12:30 23.36024 101.37985 38004 ft 490 kts 26°
2026-05-08 12:30 23.41880 101.41790 38016 ft 491 kts 26°
2026-05-08 12:31 23.47747 101.45609 38025 ft 491 kts 26°
2026-05-08 12:31 23.53608 101.49429 38025 ft 489 kts 26°
2026-05-08 12:32 23.59436 101.53232 37980 ft 487 kts 26°
2026-05-08 12:32 23.62342 101.55129 37574 ft 487 kts 26°
2026-05-08 12:32 23.65255 101.57030 36864 ft 490 kts 26°
2026-05-08 12:33 23.68198 101.58950 35974 ft 496 kts 26°
2026-05-08 12:33 23.71184 101.60898 34986 ft 504 kts 26°
2026-05-08 12:33 23.74188 101.62860 33980 ft 513 kts 26°
2026-05-08 12:33 23.77262 101.64872 33007 ft 516 kts 26°
2026-05-08 12:34 23.80349 101.66895 32082 ft 518 kts 26°
2026-05-08 12:34 23.83435 101.68917 31197 ft 518 kts 27°
2026-05-08 12:34 23.86521 101.70943 30278 ft 519 kts 26°
2026-05-08 12:34 23.89615 101.72974 29544 ft 514 kts 27°
2026-05-08 12:35 23.92655 101.74972 28971 ft 507 kts 27°
2026-05-08 12:35 23.95659 101.76946 28372 ft 501 kts 28°
2026-05-08 12:35 23.98512 101.79110 27787 ft 498 kts 35°
2026-05-08 12:35 24.01086 101.81627 27211 ft 496 kts 43°
2026-05-08 12:36 24.03461 101.84341 26620 ft 491 kts 43°
2026-05-08 12:36 24.05824 101.87027 26043 ft 487 kts 43°
2026-05-08 12:36 24.08166 101.89681 25479 ft 483 kts 43°
2026-05-08 12:36 24.10457 101.92276 24922 ft 478 kts 44°
2026-05-08 12:37 24.12762 101.94892 24382 ft 475 kts 44°
2026-05-08 12:37 24.15073 101.97517 23838 ft 471 kts 44°
2026-05-08 12:37 24.17336 102.00092 23231 ft 467 kts 44°
2026-05-08 12:37 24.19579 102.02646 22603 ft 463 kts 44°
2026-05-08 12:38 24.21802 102.05178 21988 ft 459 kts 44°
2026-05-08 12:38 24.23977 102.07658 21385 ft 455 kts 44°
2026-05-08 12:38 24.26192 102.10183 20792 ft 451 kts 44°
2026-05-08 12:38 24.28327 102.12618 20219 ft 447 kts 43°
2026-05-08 12:39 24.30474 102.15068 19656 ft 443 kts 43°
2026-05-08 12:39 24.32595 102.17489 19088 ft 439 kts 44°
2026-05-08 12:39 24.34700 102.19895 18542 ft 434 kts 43°
2026-05-08 12:39 24.36782 102.22273 17923 ft 430 kts 43°
2026-05-08 12:40 24.38843 102.24628 17303 ft 426 kts 44°
2026-05-08 12:40 24.40886 102.26965 16695 ft 422 kts 44°
2026-05-08 12:40 24.42908 102.29279 16098 ft 418 kts 44°
2026-05-08 12:40 24.44912 102.31571 15511 ft 414 kts 44°
2026-05-08 12:41 24.46894 102.33843 14937 ft 410 kts 44°
2026-05-08 12:41 24.48857 102.36093 14373 ft 407 kts 44°
2026-05-08 12:41 24.50804 102.38327 13792 ft 403 kts 44°
2026-05-08 12:41 24.52733 102.40539 13176 ft 399 kts 45°
2026-05-08 12:42 24.54633 102.42722 12683 ft 392 kts 45°
2026-05-08 12:42 24.56504 102.44869 12191 ft 386 kts 45°
2026-05-08 12:42 24.58342 102.46981 11718 ft 380 kts 45°
2026-05-08 12:42 24.60160 102.49071 11273 ft 375 kts 46°
2026-05-08 12:43 24.61931 102.51107 11073 ft 362 kts 46°
2026-05-08 12:43 24.63629 102.53062 11019 ft 345 kts 46°
2026-05-08 12:43 24.65242 102.54923 11014 ft 326 kts 46°
2026-05-08 12:43 24.66785 102.56660 11022 ft 309 kts 41°
2026-05-08 12:44 24.68461 102.58111 11027 ft 311 kts 35°
2026-05-08 12:44 24.70222 102.59521 11040 ft 312 kts 35°
2026-05-08 12:44 24.71961 102.60932 11025 ft 310 kts 36°
2026-05-08 12:44 24.73651 102.62376 11030 ft 311 kts 38°
2026-05-08 12:45 24.75334 102.63848 10995 ft 306 kts 38°
2026-05-08 12:45 24.76971 102.65281 10921 ft 296 kts 37°
2026-05-08 12:45 24.78575 102.66626 10874 ft 283 kts 37°
2026-05-08 12:45 24.80083 102.67922 10864 ft 266 kts 37°
2026-05-08 12:46 24.81510 102.69162 10880 ft 262 kts 37°
2026-05-08 12:46 24.82599 102.70108 10869 ft 266 kts 37°
2026-05-08 12:46 24.84045 102.71364 10888 ft 264 kts 37°
2026-05-08 12:46 24.85487 102.72619 10891 ft 263 kts 37°
2026-05-08 12:47 24.86927 102.73871 10899 ft 264 kts 37°
2026-05-08 12:47 24.88367 102.75124 10903 ft 264 kts 37°
2026-05-08 12:47 24.89800 102.76371 10913 ft 261 kts 37°
2026-05-08 12:47 24.91190 102.77581 10893 ft 248 kts 37°
2026-05-08 12:48 24.92507 102.78728 10804 ft 235 kts 37°
2026-05-08 12:48 24.93760 102.79819 10641 ft 226 kts 38°
2026-05-08 12:48 24.94993 102.80892 10401 ft 224 kts 38°
2026-05-08 12:48 24.96207 102.81949 10112 ft 222 kts 38°
2026-05-08 12:49 24.97425 102.83010 9818 ft 225 kts 38°
2026-05-08 12:49 24.98648 102.84077 9507 ft 222 kts 38°
2026-05-08 12:49 24.99851 102.85125 9224 ft 219 kts 39°
2026-05-08 12:49 25.00986 102.86114 8966 ft 196 kts 39°
2026-05-08 12:50 25.01908 102.86919 8723 ft 180 kts 39°
2026-05-08 12:50 25.02848 102.87738 8502 ft 165 kts 39°
2026-05-08 12:50 25.03714 102.88493 8277 ft 153 kts 39°
2026-05-08 12:50 25.04550 102.89223 8106 ft 157 kts 40°
2026-05-08 12:51 25.05418 102.89980 7891 ft 158 kts 39°
2026-05-08 12:51 25.07052 102.91424 7423 ft 145 kts 39°
2026-05-08 12:51 25.07839 102.92110 7255 ft 142 kts 37°
2026-05-08 12:52 25.08608 102.92769 7039 ft 139 kts 37°
2026-05-08 12:52 25.09963 102.93933 6892 ft 66 kts 36°
2026-05-08 12:52 25.10228 102.94163 6893 ft 44 kts 38°
2026-05-08 12:53 25.10377 102.94291 6893 ft 24 kts 34°
2026-05-08 12:53 25.10521 102.94346 6892 ft 14 kts 12°
2026-05-08 12:53 25.10618 102.94369 6891 ft 10 kts
2026-05-08 12:53 25.10651 102.94373 6891 ft 5 kts
2026-05-08 12:54 25.10694 102.94379 6891 ft 7 kts
2026-05-08 12:54 25.10721 102.94383 6891 ft 4 kts
2026-05-08 12:54 25.10755 102.94391 6891 ft 6 kts 18°
2026-05-08 12:54 25.10795 102.94420 6891 ft 8 kts 39°
2026-05-08 12:55 25.10834 102.94454 6891 ft 8 kts 38°
2026-05-08 12:55 25.10881 102.94495 6890 ft 0 kts 38°
2026-05-08 12:55 25.10886 102.94500 6890 ft 2 kts 38°
2026-05-08 12:55 25.10906 102.94516 6890 ft 5 kts 37°
2026-05-08 12:56 25.10945 102.94529 6890 ft 8 kts 355°
2026-05-08 12:56 25.10999 102.94470 6891 ft 15 kts 308°
2026-05-08 12:56 25.11076 102.94374 6891 ft 18 kts 310°
2026-05-08 12:56 25.11161 102.94266 6892 ft 19 kts 311°
2026-05-08 12:57 25.11251 102.94154 6893 ft 19 kts 304°
2026-05-08 12:57 25.11323 102.94029 6895 ft 18 kts 308°
2026-05-08 12:57 25.11405 102.93924 6896 ft 18 kts 309°
2026-05-08 12:57 25.11483 102.93815 6897 ft 18 kts 308°
2026-05-08 12:58 25.11564 102.93703 6898 ft 19 kts 309°
2026-05-08 12:58 25.11647 102.93591 6900 ft 19 kts 309°
2026-05-08 12:58 25.11719 102.93481 6900 ft 16 kts 309°
2026-05-08 12:58 25.11738 102.93389 6900 ft 11 kts 243°
2026-05-08 12:59 25.11688 102.93334 6901 ft 10 kts 218°
2026-05-08 12:59 25.11627 102.93281 6901 ft 12 kts 218°
2026-05-08 12:59 25.11557 102.93220 6902 ft 13 kts 218°
2026-05-08 12:59 25.11480 102.93153 6902 ft 15 kts 218°
2026-05-08 13:00 25.11396 102.93080 6902 ft 16 kts 219°
2026-05-08 13:00 25.11306 102.93002 6903 ft 17 kts 219°
2026-05-08 13:00 25.11212 102.92918 6903 ft 18 kts 219°
2026-05-08 13:00 25.11110 102.92833 6903 ft 19 kts 217°
2026-05-08 13:01 25.11007 102.92741 6908 ft 20 kts 218°
2026-05-08 13:01 25.10897 102.92645 6904 ft 20 kts 218°
2026-05-08 13:01 25.10784 102.92546 6905 ft 21 kts 217°
2026-05-08 13:01 25.10668 102.92446 6907 ft 21 kts 218°
2026-05-08 13:02 25.10560 102.92351 6906 ft 19 kts 218°
2026-05-08 13:02 25.10464 102.92267 6906 ft 16 kts 217°
2026-05-08 13:02 25.10380 102.92194 6909 ft 14 kts 218°
2026-05-08 13:02 25.10309 102.92132 6907 ft 12 kts 218°
2026-05-08 13:03 25.10244 102.92120 6918 ft 7 kts 160°
2026-05-08 13:03 25.10221 102.92146 6914 ft 7 kts 128°
2026-05-08 13:03 25.10186 102.92192 6916 ft 8 kts 130°
2026-05-08 13:03 25.10153 102.92247 6920 ft 9 kts 107°
2026-05-08 13:04 25.10169 102.92287 6923 ft 0 kts 38°
2026-05-08 13:04 25.10171 102.92289 6923 ft 1 kts 37°
2026-05-08 13:04 25.10180 102.92296 6908 ft 2 kts 36°
2026-05-08 13:04 25.10192 102.92306 6910 ft 2 kts 38°
2026-05-08 13:05 25.10195 102.92309 6917 ft 0 kts 38°